Time,TemperatureF,DewpointF,PressureIn,WindDirection,WindDirectionDegrees,WindSpeedMPH,WindSpeedGustMPH,Humidity,HourlyPrecipIn,Conditions,Clouds,dailyrainin,SoftwareType,DateUTC
2013-02-19 00:01:00,38.0,37.0,29.76,West,274,0.0,0.0,98,0.02,,,0.05,,2013-02-19 08:01:00,
2013-02-19 00:11:00,38.0,37.0,29.76,West,274,0.0,0.0,98,0.02,,,0.05,,2013-02-19 08:11:00,
2013-02-19 00:21:00,37.0,36.0,29.76,West,274,0.0,0.0,98,0.02,,,0.05,,2013-02-19 08:21:00,
2013-02-19 00:31:00,37.0,36.0,29.75,North,356,0.0,0.0,98,0.00,,,0.05,,2013-02-19 08:31:00,
2013-02-19 00:42:00,37.0,36.0,29.75,North,356,0.0,0.0,98,0.00,,,0.05,,2013-02-19 08:42:00,
2013-02-19 00:52:00,37.0,36.0,29.75,North,356,0.0,0.0,98,0.00,,,0.05,,2013-02-19 08:52:00,
2013-02-19 01:01:00,37.0,36.0,29.75,WSW,258,0.0,0.0,98,0.00,,,0.05,,2013-02-19 09:01:00,
2013-02-19 01:11:00,37.0,36.0,29.75,WSW,258,0.0,0.0,98,0.00,,,0.05,,2013-02-19 09:11:00,
2013-02-19 01:21:00,37.0,36.0,29.75,West,267,0.0,0.0,98,0.00,,,0.05,,2013-02-19 09:21:00,
2013-02-19 01:31:00,37.0,36.0,29.74,West,281,0.0,0.0,98,0.00,,,0.05,,2013-02-19 09:31:00,
2013-02-19 01:41:00,37.0,36.0,29.74,West,281,0.0,0.0,98,0.00,,,0.05,,2013-02-19 09:41:00,
2013-02-19 01:52:00,37.0,36.0,29.74,West,281,0.0,0.0,98,0.00,,,0.05,,2013-02-19 09:52:00,
2013-02-19 02:01:00,37.0,36.0,29.74,West,280,0.0,0.0,98,0.00,,,0.05,,2013-02-19 10:01:00,
2013-02-19 02:11:00,37.0,36.0,29.74,West,280,0.0,0.0,98,0.00,,,0.05,,2013-02-19 10:11:00,
2013-02-19 02:21:00,37.0,36.0,29.73,West,281,0.0,0.0,98,0.00,,,0.05,,2013-02-19 10:21:00,
2013-02-19 02:31:00,37.0,36.0,29.73,West,281,0.0,0.0,98,0.00,,,0.05,,2013-02-19 10:31:00,
2013-02-19 02:41:00,37.0,36.0,29.73,West,281,0.0,0.0,98,0.00,,,0.05,,2013-02-19 10:41:00,
2013-02-19 02:51:00,37.0,36.0,29.73,West,280,0.0,0.0,98,0.00,,,0.05,,2013-02-19 10:51:00,
2013-02-19 03:01:00,37.0,36.0,29.73,West,281,0.0,0.0,98,0.00,,,0.05,,2013-02-19 11:01:00,
2013-02-19 03:11:00,37.0,36.0,29.73,West,281,0.0,0.0,98,0.00,,,0.05,,2013-02-19 11:11:00,
2013-02-19 03:21:00,37.0,36.0,29.73,West,281,0.0,0.0,98,0.00,,,0.05,,2013-02-19 11:21:00,
2013-02-19 03:32:00,36.0,35.0,29.73,West,281,0.0,0.0,98,0.00,,,0.05,,2013-02-19 11:32:00,
2013-02-19 03:42:00,36.0,35.0,29.73,West,281,0.0,0.0,98,0.00,,,0.05,,2013-02-19 11:42:00,
2013-02-19 03:52:00,36.0,35.0,29.73,West,280,0.0,0.0,98,0.00,,,0.05,,2013-02-19 11:52:00,
2013-02-19 04:01:00,36.0,35.0,29.73,West,281,0.0,0.0,98,0.00,,,0.05,,2013-02-19 12:01:00,
2013-02-19 04:12:00,36.0,35.0,29.73,West,281,0.0,0.0,98,0.00,,,0.05,,2013-02-19 12:12:00,
2013-02-19 04:21:00,36.0,35.0,29.73,West,281,0.0,0.0,98,0.00,,,0.05,,2013-02-19 12:21:00,
2013-02-19 04:32:00,36.0,35.0,29.73,West,281,0.0,0.0,98,0.01,,,0.06,,2013-02-19 12:32:00,
2013-02-19 04:42:00,36.0,35.0,29.73,West,281,0.0,0.0,98,0.01,,,0.06,,2013-02-19 12:42:00,
2013-02-19 04:52:00,36.0,35.0,29.73,West,281,0.0,0.0,98,0.01,,,0.06,,2013-02-19 12:52:00,
2013-02-19 05:01:00,36.0,36.0,29.74,West,281,0.0,0.0,99,0.01,,,0.06,,2013-02-19 13:01:00,
2013-02-19 05:11:00,36.0,36.0,29.74,West,281,0.0,0.0,99,0.01,,,0.06,,2013-02-19 13:11:00,
2013-02-19 05:22:00,36.0,36.0,29.74,West,281,0.0,0.0,99,0.01,,,0.06,,2013-02-19 13:22:00,
2013-02-19 05:31:00,36.0,36.0,29.74,East,81,0.0,0.0,99,0.00,,,0.06,,2013-02-19 13:31:00,
2013-02-19 05:41:00,36.0,36.0,29.74,East,81,0.0,0.0,99,0.00,,,0.06,,2013-02-19 13:41:00,
2013-02-19 05:52:00,36.0,36.0,29.74,NW,311,0.0,0.0,99,0.00,,,0.06,,2013-02-19 13:52:00,
2013-02-19 06:01:00,36.0,36.0,29.74,NW,311,0.0,0.0,99,0.00,,,0.06,,2013-02-19 14:01:00,
2013-02-19 06:11:00,36.0,36.0,29.74,NW,311,0.0,0.0,99,0.00,,,0.06,,2013-02-19 14:11:00,
2013-02-19 06:21:00,36.0,36.0,29.75,WNW,298,0.0,1.0,99,0.00,,,0.06,,2013-02-19 14:21:00,
2013-02-19 06:32:00,36.0,36.0,29.76,NNE,13,0.0,0.0,99,0.00,,,0.06,,2013-02-19 14:32:00,
2013-02-19 06:41:00,36.0,36.0,29.76,NNE,13,0.0,0.0,99,0.00,,,0.06,,2013-02-19 14:41:00,
2013-02-19 06:52:00,36.0,36.0,29.76,WNW,285,0.0,0.0,99,0.00,,,0.06,,2013-02-19 14:52:00,
2013-02-19 07:01:00,36.0,36.0,29.76,WNW,283,0.0,0.0,99,0.00,,,0.06,,2013-02-19 15:01:00,
2013-02-19 07:11:00,36.0,36.0,29.76,WNW,283,0.0,0.0,99,0.00,,,0.06,,2013-02-19 15:11:00,
2013-02-19 07:21:00,36.0,36.0,29.76,NE,53,0.0,0.0,99,0.00,,,0.06,,2013-02-19 15:21:00,
2013-02-19 07:31:00,36.0,36.0,29.77,West,270,0.0,0.0,99,0.00,,,0.06,,2013-02-19 15:31:00,
2013-02-19 07:42:00,36.0,36.0,29.77,West,270,0.0,0.0,99,0.00,,,0.06,,2013-02-19 15:42:00,
2013-02-19 07:52:00,36.0,35.0,29.77,West,281,0.0,0.0,98,0.00,,,0.06,,2013-02-19 15:52:00,
2013-02-19 08:01:00,36.0,36.0,29.78,West,272,0.0,2.0,99,0.00,,,0.06,,2013-02-19 16:01:00,
2013-02-19 08:11:00,36.0,36.0,29.78,West,272,0.0,2.0,99,0.00,,,0.06,,2013-02-19 16:11:00,
2013-02-19 08:21:00,36.0,36.0,29.78,South,169,0.0,0.0,99,0.00,,,0.06,,2013-02-19 16:21:00,
2013-02-19 08:31:00,37.0,36.0,29.78,WSW,255,0.0,0.0,98,0.00,,,0.06,,2013-02-19 16:31:00,
2013-02-19 08:41:00,37.0,36.0,29.78,WSW,255,0.0,0.0,98,0.00,,,0.06,,2013-02-19 16:41:00,
2013-02-19 08:51:00,37.0,37.0,29.79,WNW,298,0.0,2.0,99,0.00,,,0.06,,2013-02-19 16:51:00,
2013-02-19 09:01:00,37.0,36.0,29.79,West,275,0.0,0.0,98,0.00,,,0.06,,2013-02-19 17:01:00,
2013-02-19 09:11:00,37.0,36.0,29.79,West,275,0.0,0.0,98,0.00,,,0.06,,2013-02-19 17:11:00,
2013-02-19 09:21:00,38.0,37.0,29.79,East,92,0.0,4.0,98,0.00,,,0.06,,2013-02-19 17:21:00,
2013-02-19 09:31:00,38.0,37.0,29.80,NNE,19,0.0,3.0,97,0.00,,,0.06,,2013-02-19 17:31:00,
2013-02-19 09:41:00,38.0,37.0,29.80,NNE,19,0.0,3.0,97,0.00,,,0.06,,2013-02-19 17:41:00,
2013-02-19 09:52:00,39.0,38.0,29.80,WNW,302,2.0,7.0,96,0.00,,,0.06,,2013-02-19 17:52:00,
2013-02-19 10:01:00,39.0,38.0,29.80,West,281,0.0,6.0,96,0.00,,,0.06,,2013-02-19 18:01:00,
2013-02-19 10:11:00,39.0,38.0,29.80,West,281,0.0,6.0,96,0.00,,,0.06,,2013-02-19 18:11:00,
2013-02-19 10:21:00,40.0,39.0,29.81,WNW,290,3.0,7.0,95,0.00,,,0.06,,2013-02-19 18:21:00,
2013-02-19 10:31:00,40.0,38.0,29.81,West,278,2.0,9.0,94,0.00,,,0.06,,2013-02-19 18:31:00,
2013-02-19 10:41:00,40.0,38.0,29.81,West,278,2.0,9.0,94,0.00,,,0.06,,2013-02-19 18:41:00,
2013-02-19 10:51:00,41.0,39.0,29.81,WNW,290,0.0,6.0,94,0.00,,,0.06,,2013-02-19 18:51:00,
2013-02-19 11:01:00,41.0,39.0,29.81,North,6,0.0,6.0,92,0.00,,,0.06,,2013-02-19 19:01:00,
2013-02-19 11:11:00,41.0,39.0,29.81,North,6,0.0,6.0,92,0.00,,,0.06,,2013-02-19 19:11:00,
2013-02-19 11:21:00,42.0,40.0,29.81,WNW,291,0.0,3.0,91,0.00,,,0.06,,2013-02-19 19:21:00,
2013-02-19 11:31:00,43.0,39.0,29.81,ENE,62,0.0,6.0,87,0.00,,,0.06,,2013-02-19 19:31:00,
2013-02-19 11:41:00,43.0,39.0,29.81,ENE,62,0.0,6.0,87,0.00,,,0.06,,2013-02-19 19:41:00,
2013-02-19 11:51:00,44.0,38.0,29.81,ENE,68,0.0,7.0,80,0.00,,,0.06,,2013-02-19 19:51:00,
2013-02-19 12:01:00,45.0,39.0,29.82,North,358,1.0,6.0,78,0.00,,,0.06,,2013-02-19 20:01:00,
2013-02-19 12:11:00,45.0,39.0,29.82,North,358,1.0,6.0,78,0.00,,,0.06,,2013-02-19 20:11:00,
2013-02-19 12:21:00,46.0,38.0,29.82,ENE,58,0.0,6.0,74,0.00,,,0.06,,2013-02-19 20:21:00,
2013-02-19 12:31:00,46.0,39.0,29.82,ENE,62,0.0,8.0,75,0.00,,,0.06,,2013-02-19 20:31:00,
2013-02-19 12:41:00,46.0,39.0,29.82,ENE,62,0.0,8.0,75,0.00,,,0.06,,2013-02-19 20:41:00,
2013-02-19 12:52:00,47.0,38.0,29.82,NW,304,1.0,11.0,71,0.00,,,0.06,,2013-02-19 20:52:00,
2013-02-19 13:01:00,47.0,38.0,29.82,WNW,290,3.0,5.0,70,0.00,,,0.06,,2013-02-19 21:01:00,
2013-02-19 13:11:00,47.0,38.0,29.82,WNW,290,3.0,5.0,70,0.00,,,0.06,,2013-02-19 21:11:00,
2013-02-19 13:21:00,48.0,39.0,29.82,North,7,2.0,10.0,70,0.00,,,0.06,,2013-02-19 21:21:00,
2013-02-19 13:31:00,48.0,36.0,29.83,West,275,2.0,9.0,63,0.00,,,0.06,,2013-02-19 21:31:00,
2013-02-19 13:42:00,48.0,36.0,29.83,West,275,2.0,9.0,63,0.00,,,0.06,,2013-02-19 21:42:00,
2013-02-19 13:51:00,48.0,36.0,29.83,WNW,295,3.0,7.0,64,0.00,,,0.06,,2013-02-19 21:51:00,
2013-02-19 14:01:00,49.0,37.0,29.83,West,262,1.0,5.0,62,0.00,,,0.06,,2013-02-19 22:01:00,
2013-02-19 14:11:00,49.0,37.0,29.83,West,262,1.0,5.0,62,0.00,,,0.06,,2013-02-19 22:11:00,
2013-02-19 14:21:00,48.0,36.0,29.83,NW,310,3.0,13.0,63,0.00,,,0.06,,2013-02-19 22:21:00,
2013-02-19 14:32:00,49.0,36.0,29.84,WNW,297,3.0,12.0,60,0.00,,,0.06,,2013-02-19 22:32:00,
2013-02-19 14:41:00,49.0,36.0,29.84,WNW,297,3.0,12.0,60,0.00,,,0.06,,2013-02-19 22:41:00,
2013-02-19 14:51:00,49.0,37.0,29.84,ENE,58,1.0,7.0,64,0.00,,,0.06,,2013-02-19 22:51:00,
2013-02-19 15:01:00,49.0,37.0,29.84,ENE,76,2.0,6.0,62,0.00,,,0.06,,2013-02-19 23:01:00,
2013-02-19 15:11:00,49.0,37.0,29.84,ENE,76,2.0,6.0,62,0.00,,,0.06,,2013-02-19 23:11:00,
2013-02-19 15:21:00,49.0,37.0,29.84,WNW,283,2.0,9.0,63,0.00,,,0.06,,2013-02-19 23:21:00,
2013-02-19 15:31:00,50.0,36.0,29.85,WNW,288,4.0,10.0,59,0.00,,,0.06,,2013-02-19 23:31:00,
2013-02-19 15:41:00,50.0,36.0,29.85,WNW,288,4.0,10.0,59,0.00,,,0.06,,2013-02-19 23:41:00,
2013-02-19 15:52:00,50.0,38.0,29.85,WNW,293,1.0,6.0,62,0.00,,,0.06,,2013-02-19 23:52:00,
2013-02-19 16:01:00,48.0,36.0,29.85,NW,325,0.0,5.0,64,0.00,,,0.06,,2013-02-20 00:01:00,
2013-02-19 16:11:00,48.0,36.0,29.85,NW,325,0.0,5.0,64,0.00,,,0.06,,2013-02-20 00:11:00,
2013-02-19 16:21:00,49.0,35.0,29.85,WSW,242,3.0,8.0,59,0.00,,,0.06,,2013-02-20 00:21:00,
2013-02-19 16:31:00,49.0,36.0,29.85,North,6,4.0,7.0,60,0.00,,,0.06,,2013-02-20 00:31:00,
2013-02-19 16:41:00,49.0,36.0,29.85,North,6,4.0,7.0,60,0.00,,,0.06,,2013-02-20 00:41:00,
2013-02-19 16:51:00,47.0,36.0,29.86,NW,326,1.0,7.0,65,0.00,,,0.06,,2013-02-20 00:51:00,
2013-02-19 17:02:00,46.0,36.0,29.87,WNW,293,3.0,9.0,68,0.00,,,0.06,,2013-02-20 01:02:00,
2013-02-19 17:11:00,46.0,36.0,29.87,WNW,293,3.0,9.0,68,0.00,,,0.06,,2013-02-20 01:11:00,
2013-02-19 17:21:00,45.0,36.0,29.87,WNW,297,1.0,4.0,71,0.00,,,0.06,,2013-02-20 01:21:00,
2013-02-19 17:31:00,44.0,36.0,29.88,WNW,302,0.0,4.0,74,0.00,,,0.06,,2013-02-20 01:31:00,
2013-02-19 17:41:00,44.0,36.0,29.88,WNW,302,0.0,4.0,74,0.00,,,0.06,,2013-02-20 01:41:00,
2013-02-19 17:51:00,43.0,37.0,29.88,WNW,300,0.0,0.0,78,0.00,,,0.06,,2013-02-20 01:51:00,
2013-02-19 18:01:00,42.0,36.0,29.88,West,277,0.0,2.0,80,0.00,,,0.06,,2013-02-20 02:01:00,
2013-02-19 18:11:00,42.0,36.0,29.88,West,277,0.0,2.0,80,0.00,,,0.06,,2013-02-20 02:11:00,
2013-02-19 18:21:00,41.0,36.0,29.89,NW,310,1.0,4.0,82,0.00,,,0.06,,2013-02-20 02:21:00,
2013-02-19 18:31:00,41.0,37.0,29.90,NNW,333,0.0,6.0,85,0.00,,,0.06,,2013-02-20 02:31:00,
2013-02-19 18:41:00,41.0,37.0,29.90,NNW,333,0.0,6.0,85,0.00,,,0.06,,2013-02-20 02:41:00,
2013-02-19 18:52:00,40.0,36.0,29.91,WNW,288,2.0,4.0,86,0.00,,,0.06,,2013-02-20 02:52:00,
2013-02-19 19:01:00,40.0,36.0,29.92,WSW,255,1.0,6.0,86,0.00,,,0.06,,2013-02-20 03:01:00,
2013-02-19 19:12:00,40.0,36.0,29.92,WSW,255,1.0,6.0,86,0.00,,,0.06,,2013-02-20 03:12:00,
2013-02-19 19:21:00,40.0,36.0,29.92,WSW,255,1.0,6.0,86,0.00,,,0.06,,2013-02-20 03:21:00,
2013-02-19 19:32:00,40.0,36.0,29.92,NW,309,0.0,4.0,87,0.00,,,0.06,,2013-02-20 03:32:00,
2013-02-19 19:41:00,40.0,36.0,29.92,NW,309,0.0,4.0,87,0.00,,,0.06,,2013-02-20 03:41:00,
2013-02-19 19:52:00,39.0,36.0,29.93,WNW,292,0.0,0.0,88,0.00,,,0.06,,2013-02-20 03:52:00,
2013-02-19 20:01:00,37.0,35.0,29.93,WNW,292,0.0,0.0,92,0.00,,,0.06,,2013-02-20 04:01:00,
2013-02-19 20:11:00,37.0,35.0,29.93,WNW,292,0.0,0.0,92,0.00,,,0.06,,2013-02-20 04:11:00,
2013-02-19 20:21:00,36.0,34.0,29.94,WNW,291,0.0,0.0,93,0.00,,,0.06,,2013-02-20 04:21:00,
2013-02-19 20:31:00,36.0,35.0,29.95,WNW,287,0.0,0.0,95,0.00,,,0.06,,2013-02-20 04:31:00,
2013-02-19 20:41:00,36.0,35.0,29.95,WNW,287,0.0,0.0,95,0.00,,,0.06,,2013-02-20 04:41:00,
2013-02-19 20:51:00,36.0,34.0,29.95,NNW,330,0.0,0.0,94,0.00,,,0.06,,2013-02-20 04:51:00,
2013-02-19 21:02:00,35.0,34.0,29.96,NNW,331,0.0,0.0,95,0.00,,,0.06,,2013-02-20 05:02:00,
2013-02-19 21:12:00,35.0,34.0,29.96,NNW,331,0.0,0.0,95,0.00,,,0.06,,2013-02-20 05:12:00,
2013-02-19 21:22:00,35.0,34.0,29.97,ENE,72,0.0,0.0,95,0.00,,,0.06,,2013-02-20 05:22:00,
2013-02-19 21:32:00,35.0,34.0,29.97,ENE,72,0.0,0.0,96,0.00,,,0.06,,2013-02-20 05:32:00,
2013-02-19 21:42:00,35.0,34.0,29.97,ENE,72,0.0,0.0,96,0.00,,,0.06,,2013-02-20 05:42:00,
2013-02-19 21:52:00,35.0,34.0,29.97,ENE,72,0.0,0.0,96,0.00,,,0.06,,2013-02-20 05:52:00,
2013-02-19 22:01:00,33.0,32.0,29.98,ENE,73,0.0,0.0,96,0.00,,,0.06,,2013-02-20 06:01:00,
2013-02-19 22:11:00,33.0,32.0,29.98,ENE,73,0.0,0.0,96,0.00,,,0.06,,2013-02-20 06:11:00,
2013-02-19 22:21:00,32.0,31.0,29.98,ENE,73,0.0,0.0,96,0.00,,,0.06,,2013-02-20 06:21:00,
2013-02-19 22:31:00,32.0,31.0,29.99,ENE,73,0.0,0.0,97,0.00,,,0.05,,2013-02-20 06:31:00,
2013-02-19 22:42:00,32.0,31.0,29.99,ENE,73,0.0,0.0,97,0.00,,,0.05,,2013-02-20 06:42:00,
2013-02-19 22:51:00,31.0,30.0,30.00,ENE,73,0.0,0.0,97,0.00,,,0.05,,2013-02-20 06:51:00,
2013-02-19 23:01:00,31.0,30.0,30.00,ENE,73,0.0,0.0,97,0.00,,,0.05,,2013-02-20 07:01:00,
2013-02-19 23:11:00,31.0,30.0,30.00,ENE,73,0.0,0.0,97,0.00,,,0.05,,2013-02-20 07:11:00,
2013-02-19 23:21:00,30.0,29.0,30.01,ENE,73,0.0,0.0,97,0.00,,,0.05,,2013-02-20 07:21:00,
2013-02-19 23:31:00,30.0,29.0,30.01,ENE,73,0.0,0.0,97,0.00,,,0.02,,2013-02-20 07:31:00,
2013-02-19 23:41:00,30.0,29.0,30.01,ENE,73,0.0,0.0,97,0.00,,,0.02,,2013-02-20 07:41:00,
2013-02-19 23:51:00,29.0,28.0,30.01,ENE,72,0.0,0.0,97,0.00,,,0.02,,2013-02-20 07:51:00,